Skip Page Navigation
NASA JPL Caltech
NASA Logo - Jet Propulsion Laboratory + View the NASA Portal
+ Center for Near-Earth Object Studies
JPL Home Earth Solar System Stars & Galaxies Technology
JPL Solar System Dynamics
BODIES ORBITS EPHEMERIDES TOOLS PHYSICAL DATA DISCOVERY FAQ SITE MAP
JPL Small-Body Database Browser
Search: [ help ]  
25035 Scalesse (1998 QN33)
Classification: Main-belt Asteroid          SPK-ID: 2025035
Ephemeris | Orbit Diagram | Orbital Elements | Mission Design | Physical Parameters | Discovery Circumstances | Close-Approach Data ]

[ hide orbit diagram ]

For accurate long-term ephemerides, please instead use our Horizons system.This orbit viewer was implemented using two-body methods, and hence should not be used for determining accurate long-term trajectories (over several years or decades) or planetary encounter circumstances.


[ revert to old Java-based viewer ]

Orbital Elements at Epoch 2459000.5 (2020-May-31.0) TDB
Reference: JPL 16 (heliocentric ecliptic J2000)
 Element Value Uncertainty (1-sigma)   Units 
e .140851891051082 4.4679e-08  
a 2.646982217361264 1.4369e-08 au
q 2.274149766467344 1.2353e-07 au
i 4.445622535981642 4.622e-06 deg
node 231.6573680876085 5.9329e-05 deg
peri 97.88963317205274 6.1941e-05 deg
M 23.34023815730901 1.7358e-05 deg
tp 2458898.517009048224
(2020-Feb-19.01700905)
7.555e-05 TDB
period 1572.98638065278
4.31
1.2808e-05
3.507e-08
d
yr
n .2288640285941969 1.8635e-09 deg/d
Q 3.019814668255184 1.6393e-08 au
  Orbit Determination Parameters
   # obs. used (total)      839  
   data-arc span      12399 days (33.95 yr)  
   first obs. used      1985-09-17  
   last obs. used      2019-08-29  
   planetary ephem.      DE431  
   SB-pert. ephem.      SB431-N16  
   condition code      0  
   norm. resid. RMS      .57845  
   source      ORB  
   producer      Otto Matic  
   solution date      2019-Sep-24 01:39:28  

Additional Information
 Earth MOID = 1.26848 au 
 Jupiter MOID = 2.32803 au 
 T_jup = 3.374 
[ show covariance matrix ]

Ephemeris | Orbit Diagram | Orbital Elements | Mission Design | Physical Parameters | Discovery Circumstances | Close-Approach Data ]

Physical Parameter Table
Parameter Symbol Value Units Sigma Reference Notes
absolute magnitude H 14.9   n/a MPO435935  
diameter diameter 3.158 km 0.342 urn:nasa:pds:neowise_diameters_albedos::2.0[mainbelt] (http://adsabs.harvard.edu/abs/2011ApJ...741...68M)  
geometric albedo albedo 0.213   0.019 urn:nasa:pds:neowise_diameters_albedos::2.0[mainbelt] (http://adsabs.harvard.edu/abs/2011ApJ...741...68M)  

25035 Scalesse           Discovered 1998 Aug. 17 by the Lincoln Laboratory Near-Earth Asteroid Research Team at Socorro.
Carlie Alexandra Scalesse (b. 1990) was awarded first place in the 2008 Intel International Science and Engineering Fair for her animal sciences project. She attends the London Central Secondary School, London, Ontario, Canada.
NOTE: some special characters may not display properly (any characters within {} are an attempt to place the proper accent above a character)
Reference: 20080917/MPCPages.arcLast Updated: 2008-09-19

[ show close-approach data ]
Alternate Designations
 1998 QN33 = 1985 SG 
Ephemeris | Orbit Diagram | Orbital Elements | Mission Design | Physical Parameters | Discovery Circumstances | Close-Approach Data ]
ABOUT SSD CREDITS/AWARDS PRIVACY/COPYRIGHT GLOSSARY LINKS
FirstGov 2020-Oct-24 18:57 UT
(server date/time)  
NASA Home Page
Site Manager:   Ryan S. Park
Webmaster  Alan B. Chamberlin